,,PA_Meas_PMT16A,,PR_Meas_QMR101_102,,RH_Meas_QMH101,,SR_Meas_QMS101,,TA_Meas_QMH101,,GenWind,,GenWind,
time,status,PA,status,PR,status,RH,status,SR,status,TA,status,DirAvg,status,SpdAvg,
2010-01-28, 00:00:05,VALID,919.164,VALID,0,VALID,89.9258,VALID,0,VALID,20.8878,VALID,95,VALID,1.33281,
2010-01-28, 00:01:05,VALID,919.135,VALID,0,VALID,89.9182,VALID,0,VALID,20.9463,VALID,95,VALID,1.07734,
2010-01-28, 00:02:05,VALID,919.149,VALID,0,VALID,90.2155,VALID,0,VALID,20.8894,VALID,95,VALID,0.814844,
2010-01-28, 00:03:05,VALID,919.136,VALID,0,VALID,90.4061,VALID,0.107441,VALID,20.8699,VALID,95,VALID,1.02305,
2010-01-28, 00:04:05,VALID,919.171,VALID,0,VALID,89.8725,VALID,0,VALID,20.9284,VALID,95,VALID,1.07266,
2010-01-28, 00:05:05,VALID,919.155,VALID,0,VALID,90.0707,VALID,0,VALID,20.8878,VALID,95,VALID,0.875391,
2010-01-28, 00:06:05,VALID,919.201,VALID,0,VALID,90.3375,VALID,0,VALID,20.8309,VALID,95,VALID,0.727734,
2010-01-28, 00:07:05,VALID,919.193,VALID,0,VALID,90.0554,VALID,0,VALID,20.7708,VALID,95,VALID,1.18164,
2010-01-28, 00:08:05,VALID,919.239,VALID,0,VALID,90.3908,VALID,0,VALID,20.8113,VALID,95,VALID,1.30469,
2010-01-28, 00:09:05,VALID,919.256,VALID,0,VALID,89.8115,VALID,0,VALID,20.9089,VALID,95,VALID,0.91875,
2010-01-28, 00:10:05,VALID,919.224,VALID,0,VALID,89.5828,VALID,0,VALID,20.9463,VALID,95,VALID,1.0625,
2010-01-28, 00:11:05,VALID,919.243,VALID,0,VALID,89.1482,VALID,0,VALID,21.0454,VALID,95,VALID,1.08281,
2010-01-28, 00:12:05,VALID,919.27,VALID,0,VALID,88.6908,VALID,0,VALID,21.1039,VALID,95,VALID,1.08555,
2010-01-28, 00:13:05,VALID,919.257,VALID,0,VALID,88.3935,VALID,0,VALID,21.1429,VALID,95,VALID,1.17266,
2010-01-28, 00:14:05,VALID,919.246,VALID,0,VALID,88.3249,VALID,0,VALID,21.1218,VALID,134,VALID,1.09258,
2010-01-28, 00:15:05,VALID,919.265,VALID,0,VALID,88.5384,VALID,0,VALID,21.1039,VALID,134,VALID,1.18477,
2010-01-28, 00:16:05,VALID,919.232,VALID,0,VALID,88.4545,VALID,0,VALID,21.0844,VALID,134,VALID,1.11523,
2010-01-28, 00:17:05,VALID,919.243,VALID,0,VALID,88.5612,VALID,0,VALID,21.0243,VALID,134,VALID,1.37188,
2010-01-28, 00:18:05,VALID,919.226,VALID,0,VALID,88.7442,VALID,0,VALID,21.0454,VALID,134,VALID,1.20664,
2010-01-28, 00:19:05,VALID,919.236,VALID,0,VALID,88.5002,VALID,0,VALID,21.1234,VALID,134,VALID,0.770703,
2010-01-28, 00:20:05,VALID,919.231,VALID,0,VALID,88.0962,VALID,0,VALID,21.1413,VALID,134,VALID,0.699609,
2010-01-28, 00:21:05,VALID,919.206,VALID,0,VALID,88.02,VALID,0,VALID,21.1803,VALID,134,VALID,1.20859,
2010-01-28, 00:22:05,VALID,919.199,VALID,0,VALID,87.837,VALID,0.107441,VALID,21.26,VALID,134,VALID,1.2168,
2010-01-28, 00:23:05,VALID,919.195,VALID,0,VALID,87.6998,VALID,0,VALID,21.2389,VALID,134,VALID,1.35352,
2010-01-28, 00:24:05,VALID,919.182,VALID,0,VALID,87.6693,VALID,0,VALID,21.1998,VALID,70,VALID,0.975781,
2010-01-28, 00:25:04,VALID,919.167,VALID,0,VALID,87.5626,VALID,0.107441,VALID,21.2193,VALID,111,VALID,1.63477,
2010-01-28, 00:26:04,VALID,919.157,VALID,0,VALID,87.3339,VALID,0,VALID,21.3169,VALID,111,VALID,1.04805,
2010-01-28, 00:27:04,VALID,919.117,VALID,0,VALID,87.2347,VALID,0,VALID,21.3169,VALID,111,VALID,1.36641,
2010-01-28, 00:28:04,VALID,919.106,VALID,0,VALID,87.4406,VALID,0.107441,VALID,21.2795,VALID,111,VALID,1.37891,
2010-01-28, 00:29:04,VALID,919.073,VALID,0,VALID,87.6159,VALID,0,VALID,21.2193,VALID,111,VALID,1.0582,
2010-01-28, 00:30:04,VALID,919.045,VALID,0,VALID,87.7684,VALID,0,VALID,21.1803,VALID,111,VALID,1.13242,
2010-01-28, 00:31:04,VALID,919.004,VALID,0,VALID,87.8751,VALID,0,VALID,21.1819,VALID,111,VALID,1.02422,
2010-01-28, 00:32:04,VALID,918.981,VALID,0,VALID,87.9437,VALID,0,VALID,21.1218,VALID,69,VALID,1.34961,
2010-01-28, 00:33:04,VALID,918.969,VALID,0,VALID,87.5854,VALID,0,VALID,21.221,VALID,69,VALID,1.00664,
2010-01-28, 00:34:04,VALID,918.965,VALID,0,VALID,87.8294,VALID,0,VALID,21.1413,VALID,69,VALID,1.25898,
2010-01-28, 00:35:04,VALID,918.94,VALID,0,VALID,87.6922,VALID,0,VALID,21.1608,VALID,69,VALID,0.957422,
2010-01-28, 00:36:04,VALID,918.96,VALID,0,VALID,87.4482,VALID,0,VALID,21.1803,VALID,69,VALID,0.553906,
2010-01-28, 00:37:04,VALID,919.001,VALID,0,VALID,87.7303,VALID,0.107441,VALID,21.1803,VALID,69,VALID,0.612109,
2010-01-28, 00:38:04,VALID,918.984,VALID,0,VALID,87.9895,VALID,0,VALID,21.1429,VALID,69,VALID,1.01289,
2010-01-28, 00:39:04,VALID,918.981,VALID,0,VALID,88.1648,VALID,0,VALID,21.1023,VALID,69,VALID,0.882422,
2010-01-28, 00:40:04,VALID,919.009,VALID,0,VALID,87.8218,VALID,0,VALID,21.1218,VALID,69,VALID,1.01914,
2010-01-28, 00:41:04,VALID,918.967,VALID,0,VALID,87.5854,VALID,0.107441,VALID,21.1803,VALID,69,VALID,0.999219,
2010-01-28, 00:42:04,VALID,918.956,VALID,0,VALID,87.4634,VALID,0,VALID,21.2015,VALID,69,VALID,1.20234,
2010-01-28, 00:43:04,VALID,918.932,VALID,0,VALID,87.2881,VALID,0,VALID,21.1803,VALID,185,VALID,1.73242,
2010-01-28, 00:44:04,VALID,918.895,VALID,0,VALID,87.5016,VALID,0.107441,VALID,21.1023,VALID,191,VALID,0.920313,
2010-01-28, 00:45:04,VALID,918.883,VALID,0,VALID,87.5244,VALID,0,VALID,21.0633,VALID,193,VALID,1.76445,
2010-01-28, 00:46:04,VALID,918.82,VALID,0,VALID,87.898,VALID,0,VALID,21.0438,VALID,180,VALID,1.85273,
2010-01-28, 00:47:04,VALID,918.798,VALID,0,VALID,87.898,VALID,0,VALID,21.0438,VALID,188,VALID,0.931641,
2010-01-28, 00:48:04,VALID,918.779,VALID,0,VALID,87.8141,VALID,0.107441,VALID,21.0454,VALID,187,VALID,0.730469,
2010-01-28, 00:49:04,VALID,918.731,VALID,0,VALID,88.1801,VALID,0,VALID,20.9658,VALID,167,VALID,1.41758,
2010-01-28, 00:50:04,VALID,918.733,VALID,0,VALID,88.1419,VALID,0,VALID,20.9853,VALID,147,VALID,1.20195,
2010-01-28, 00:51:04,VALID,918.702,VALID,0,VALID,88.0962,VALID,0,VALID,20.9674,VALID,147,VALID,1.39961,
2010-01-28, 00:52:04,VALID,918.658,VALID,0,VALID,87.0061,VALID,0,VALID,20.9479,VALID,154,VALID,1.58359,
2010-01-28, 00:53:04,VALID,918.652,VALID,0,VALID,87.8218,VALID,0,VALID,21.0275,VALID,95,VALID,1.55625,
2010-01-28, 00:54:04,VALID,918.677,VALID,0,VALID,87.5626,VALID,0,VALID,21.0064,VALID,141,VALID,1.45898,
2010-01-28, 00:55:04,VALID,918.622,VALID,0,VALID,87.9895,VALID,0,VALID,20.9885,VALID,152,VALID,1.70586,
2010-01-28, 00:56:04,VALID,918.619,VALID,0,VALID,88.0657,VALID,0,VALID,20.9284,VALID,128,VALID,2.53125,
2010-01-28, 00:57:04,VALID,918.57,VALID,0,VALID,88.1267,VALID,0,VALID,21.0064,VALID,161,VALID,1.92734,
2010-01-28, 00:58:04,VALID,918.529,VALID,0,VALID,87.189,VALID,0,VALID,21.1429,VALID,143,VALID,1.32773,
2010-01-28, 00:59:04,VALID,918.493,VALID,0,VALID,87.1204,VALID,0,VALID,21.1819,VALID,139,VALID,1.41914,
2010-01-28, 01:00:04,VALID,918.491,VALID,0,VALID,87.7455,VALID,0,VALID,21.1234,VALID,129,VALID,2.08867,
2010-01-28, 01:01:04,VALID,918.44,VALID,0,VALID,88.3173,VALID,0,VALID,21.047,VALID,145,VALID,1.45859,
2010-01-28, 01:02:04,VALID,918.434,VALID,0,VALID,88.7061,VALID,0,VALID,20.9885,VALID,156,VALID,1.63555,
2010-01-28, 01:03:04,VALID,918.403,VALID,0,VALID,88.7975,VALID,0,VALID,20.9674,VALID,164,VALID,1.48711,
2010-01-28, 01:04:04,VALID,918.397,VALID,0,VALID,88.9195,VALID,0,VALID,20.9479,VALID,164,VALID,0.984375,
2010-01-28, 01:05:04,VALID,918.431,VALID,0,VALID,89.0567,VALID,0,VALID,20.9105,VALID,164,VALID,0.825391,
2010-01-28, 01:06:04,VALID,918.438,VALID,0,VALID,89.6437,VALID,0,VALID,20.8082,VALID,123,VALID,1.33203,
2010-01-28, 01:07:04,VALID,918.46,VALID,0,VALID,89.9029,VALID,0,VALID,20.7708,VALID,123,VALID,0.914063,
2010-01-28, 01:08:04,VALID,918.462,VALID,0,VALID,90.3299,VALID,0,VALID,20.6928,VALID,123,VALID,1.02031,
2010-01-28, 01:09:04,VALID,918.468,VALID,0,VALID,90.7263,VALID,0,VALID,20.6748,VALID,152,VALID,1.2793,
2010-01-28, 01:10:04,VALID,918.474,VALID,0,VALID,90.9245,VALID,0,VALID,20.6342,VALID,154,VALID,1.08672,
2010-01-28, 01:11:04,VALID,918.468,VALID,0,VALID,91.1074,VALID,0,VALID,20.6147,VALID,115,VALID,1.28125,
2010-01-28, 01:12:04,VALID,918.457,VALID,0,VALID,90.8787,VALID,0,VALID,20.5757,VALID,115,VALID,0.557031,
2010-01-28, 01:13:04,VALID,918.437,VALID,0,VALID,91.2142,VALID,0,VALID,20.5367,VALID,137,VALID,1.01016,
2010-01-28, 01:14:04,VALID,918.384,VALID,0,VALID,91.4429,VALID,0,VALID,20.4977,VALID,137,VALID,1.06172,
2010-01-28, 01:15:04,VALID,918.4,VALID,0,VALID,91.7021,VALID,0,VALID,20.4782,VALID,137,VALID,1.11328,
2010-01-28, 01:16:04,VALID,918.403,VALID,0,VALID,91.7707,VALID,0,VALID,20.4587,VALID,137,VALID,0.951172,
2010-01-28, 01:17:04,VALID,918.364,VALID,0,VALID,91.7021,VALID,0,VALID,20.4782,VALID,138,VALID,1.23828,
2010-01-28, 01:18:04,VALID,918.374,VALID,0,VALID,91.6106,VALID,0,VALID,20.4977,VALID,138,VALID,1.20859,
2010-01-28, 01:19:04,VALID,918.335,VALID,0,VALID,91.5877,VALID,0,VALID,20.4993,VALID,138,VALID,0.935938,
2010-01-28, 01:20:04,VALID,918.363,VALID,0,VALID,91.5877,VALID,0,VALID,20.4977,VALID,138,VALID,0.794922,
2010-01-28, 01:21:04,VALID,918.367,VALID,0,VALID,91.7554,VALID,0,VALID,20.4798,VALID,138,VALID,1.19414,
2010-01-28, 01:22:04,VALID,918.354,VALID,0,VALID,91.9003,VALID,0,VALID,20.4603,VALID,138,VALID,1.16875,
2010-01-28, 01:23:04,VALID,918.347,VALID,0,VALID,91.8088,VALID,0,VALID,20.4587,VALID,138,VALID,1.30117,
2010-01-28, 01:24:04,VALID,918.362,VALID,0,VALID,91.8545,VALID,0,VALID,20.4603,VALID,138,VALID,1.28398,
2010-01-28, 01:25:04,VALID,918.366,VALID,0,VALID,91.7097,VALID,0,VALID,20.4392,VALID,138,VALID,1.20859,
2010-01-28, 01:26:04,VALID,918.357,VALID,0,VALID,91.6411,VALID,0.107441,VALID,20.4392,VALID,138,VALID,1.48789,
2010-01-28, 01:27:04,VALID,918.344,VALID,0,VALID,91.7783,VALID,0,VALID,20.4197,VALID,138,VALID,1.62617,
2010-01-28, 01:28:04,VALID,918.347,VALID,0,VALID,91.6487,VALID,0.107441,VALID,20.4408,VALID,138,VALID,2.09844,
2010-01-28, 01:29:04,VALID,918.338,VALID,0,VALID,90.9931,VALID,0,VALID,20.5578,VALID,116,VALID,1.96836,
2010-01-28, 01:30:04,VALID,918.331,VALID,0,VALID,90.5433,VALID,0,VALID,20.6147,VALID,117,VALID,1.51367,
2010-01-28, 01:31:04,VALID,918.286,VALID,0,VALID,90.4671,VALID,0,VALID,20.6147,VALID,121,VALID,2.09883,
2010-01-28, 01:32:04,VALID,918.268,VALID,0,VALID,90.2308,VALID,0,VALID,20.6928,VALID,132,VALID,1.72031,
2010-01-28, 01:33:04,VALID,918.241,VALID,0,VALID,90.185,VALID,0,VALID,20.7333,VALID,115,VALID,1.45078,
2010-01-28, 01:34:04,VALID,918.229,VALID,0,VALID,90.2155,VALID,0,VALID,20.6928,VALID,115,VALID,1.56719,
2010-01-28, 01:35:04,VALID,918.218,VALID,0,VALID,90.246,VALID,0,VALID,20.7333,VALID,109,VALID,1.59375,
2010-01-28, 01:36:04,VALID,918.207,VALID,0,VALID,90.2765,VALID,0,VALID,20.7318,VALID,111,VALID,1.85352,
2010-01-28, 01:37:04,VALID,918.187,VALID,0,VALID,90.2536,VALID,0,VALID,20.7318,VALID,111,VALID,1.5418,
2010-01-28, 01:38:04,VALID,918.16,VALID,0,VALID,90.185,VALID,0,VALID,20.7723,VALID,110,VALID,1.3707,
2010-01-28, 01:39:04,VALID,918.124,VALID,0,VALID,90.2079,VALID,0,VALID,20.7918,VALID,110,VALID,1.76797,
2010-01-28, 01:40:04,VALID,918.091,VALID,0,VALID,90.1621,VALID,0,VALID,20.7708,VALID,110,VALID,1.47422,
2010-01-28, 01:41:04,VALID,918.078,VALID,0,VALID,90.124,VALID,0,VALID,20.7903,VALID,110,VALID,1.22695,
2010-01-28, 01:42:04,VALID,918.034,VALID,0,VALID,90.0325,VALID,0,VALID,20.7903,VALID,110,VALID,1.7125,
2010-01-28, 01:43:04,VALID,918.025,VALID,0,VALID,90.0325,VALID,0,VALID,20.7903,VALID,109,VALID,1.44922,
2010-01-28, 01:44:04,VALID,917.99,VALID,0,VALID,90.063,VALID,0,VALID,20.7708,VALID,116,VALID,1.09375,
2010-01-28, 01:45:04,VALID,917.971,VALID,0,VALID,90.1698,VALID,0,VALID,20.7708,VALID,148,VALID,1.40625,
2010-01-28, 01:46:04,VALID,917.963,VALID,0,VALID,90.4518,VALID,0,VALID,20.7333,VALID,148,VALID,1.5332,
2010-01-28, 01:47:04,VALID,917.972,VALID,0,VALID,90.6882,VALID,0,VALID,20.6537,VALID,135,VALID,1.2707,
2010-01-28, 01:48:04,VALID,917.985,VALID,0,VALID,91.0236,VALID,0,VALID,20.5757,VALID,135,VALID,1.06406,
2010-01-28, 01:49:04,VALID,918.023,VALID,0,VALID,91.1227,VALID,0,VALID,20.5367,VALID,132,VALID,1.40313,
2010-01-28, 01:50:04,VALID,918.014,VALID,0,VALID,91.3285,VALID,0,VALID,20.5172,VALID,103,VALID,1.0082,
2010-01-28, 01:51:04,VALID,918.037,VALID,0,VALID,91.3743,VALID,0,VALID,20.5188,VALID,128,VALID,1.20156,
2010-01-28, 01:52:04,VALID,918.068,VALID,0,VALID,91.298,VALID,0.107441,VALID,20.4977,VALID,128,VALID,1.48008,
2010-01-28, 01:53:04,VALID,918.049,VALID,0,VALID,91.2218,VALID,0.107441,VALID,20.4977,VALID,128,VALID,1.35664,
2010-01-28, 01:54:04,VALID,918.051,VALID,0,VALID,91.3819,VALID,0,VALID,20.4993,VALID,128,VALID,1.36758,
2010-01-28, 01:55:04,VALID,918.052,VALID,0,VALID,91.603,VALID,0.107441,VALID,20.4782,VALID,128,VALID,1.71523,
2010-01-28, 01:56:04,VALID,918.03,VALID,0,VALID,91.7021,VALID,0,VALID,20.4798,VALID,128,VALID,1.6375,
2010-01-28, 01:57:04,VALID,918.016,VALID,0,VALID,91.8469,VALID,0,VALID,20.4392,VALID,121,VALID,1.68711,
2010-01-28, 01:58:04,VALID,917.979,VALID,0,VALID,91.824,VALID,0.107441,VALID,20.4197,VALID,123,VALID,1.8457,
2010-01-28, 01:59:04,VALID,917.96,VALID,0,VALID,91.7173,VALID,0,VALID,20.4197,VALID,135,VALID,1.63828,
2010-01-28, 02:00:04,VALID,917.912,VALID,0,VALID,91.7249,VALID,0,VALID,20.4392,VALID,124,VALID,1.56172,
2010-01-28, 02:01:04,VALID,917.86,VALID,0,VALID,91.7707,VALID,0,VALID,20.4408,VALID,138,VALID,1.82461,
2010-01-28, 02:02:04,VALID,917.861,VALID,0,VALID,91.7478,VALID,0,VALID,20.4392,VALID,128,VALID,1.71484,
2010-01-28, 02:03:04,VALID,917.832,VALID,0,VALID,91.7707,VALID,0,VALID,20.4603,VALID,113,VALID,1.07695,
2010-01-28, 02:04:04,VALID,917.838,VALID,0,VALID,91.7859,VALID,0,VALID,20.4213,VALID,113,VALID,1.21953,
2010-01-28, 02:05:04,VALID,917.818,VALID,0,VALID,92.0604,VALID,0,VALID,20.3612,VALID,113,VALID,0.75,
2010-01-28, 02:06:04,VALID,917.79,VALID,0,VALID,92.2357,VALID,0,VALID,20.3238,VALID,110,VALID,1.54688,
2010-01-28, 02:07:04,VALID,917.83,VALID,0,VALID,92.5025,VALID,0,VALID,20.2637,VALID,102,VALID,1.31914,
2010-01-28, 02:08:04,VALID,917.828,VALID,0,VALID,92.5559,VALID,0,VALID,20.2247,VALID,102,VALID,1.65703,
2010-01-28, 02:09:04,VALID,917.817,VALID,0,VALID,92.8608,VALID,0,VALID,20.2247,VALID,121,VALID,2.08867,
2010-01-28, 02:10:04,VALID,917.82,VALID,0,VALID,92.9523,VALID,0,VALID,20.2068,VALID,110,VALID,1.60117,
2010-01-28, 02:11:04,VALID,917.79,VALID,0,VALID,93.2191,VALID,0,VALID,20.2068,VALID,116,VALID,2.06953,
2010-01-28, 02:12:04,VALID,917.79,VALID,0,VALID,93.3945,VALID,0,VALID,20.1678,VALID,115,VALID,1.65937,
2010-01-28, 02:13:04,VALID,917.776,VALID,0,VALID,93.6003,VALID,0.107441,VALID,20.1272,VALID,99,VALID,1.43164,
2010-01-28, 02:14:04,VALID,917.748,VALID,0,VALID,93.8366,VALID,0,VALID,20.1077,VALID,134,VALID,2.2,
2010-01-28, 02:15:04,VALID,917.702,VALID,0,VALID,93.8366,VALID,0,VALID,20.0882,VALID,126,VALID,2.45117,
2010-01-28, 02:16:04,VALID,917.702,VALID,0,VALID,93.8214,VALID,0,VALID,20.1093,VALID,130,VALID,1.83516,
2010-01-28, 02:17:04,VALID,917.672,VALID,0,VALID,93.8443,VALID,0,VALID,20.0882,VALID,127,VALID,2.01445,
2010-01-28, 02:18:04,VALID,917.66,VALID,0,VALID,93.7604,VALID,0.107441,VALID,20.1093,VALID,140,VALID,1.55156,
2010-01-28, 02:19:04,VALID,917.628,VALID,0,VALID,93.7299,VALID,0,VALID,20.1288,VALID,138,VALID,1.40781,
2010-01-28, 02:20:04,VALID,917.625,VALID,0,VALID,93.6003,VALID,0,VALID,20.1288,VALID,134,VALID,1.42852,
2010-01-28, 02:21:04,VALID,917.663,VALID,0,VALID,93.5088,VALID,0.107441,VALID,20.1467,VALID,148,VALID,1.32461,
2010-01-28, 02:22:04,VALID,917.632,VALID,0,VALID,93.4173,VALID,0.107441,VALID,20.1467,VALID,148,VALID,1.36055,
2010-01-28, 02:23:04,VALID,917.645,VALID,0,VALID,93.3259,VALID,0.107441,VALID,20.1452,VALID,147,VALID,1.2875,
2010-01-28, 02:24:04,VALID,917.595,VALID,0,VALID,93.1963,VALID,0.107441,VALID,20.1857,VALID,147,VALID,0.872656,
2010-01-28, 02:25:04,VALID,917.601,VALID,0,VALID,93.0895,VALID,0.107441,VALID,20.1842,VALID,147,VALID,0.463281,
2010-01-28, 02:26:04,VALID,917.611,VALID,0,VALID,92.9142,VALID,0.107441,VALID,20.2263,VALID,147,VALID,1.15078,
2010-01-28, 02:27:04,VALID,917.639,VALID,0,VALID,92.9904,VALID,0,VALID,20.2052,VALID,147,VALID,1.38945,
2010-01-28, 02:28:04,VALID,917.647,VALID,0,VALID,92.9066,VALID,0.107441,VALID,20.2052,VALID,147,VALID,1.07578,
2010-01-28, 02:29:04,VALID,917.615,VALID,0,VALID,92.9904,VALID,0,VALID,20.2263,VALID,147,VALID,0.969922,
2010-01-28, 02:30:04,VALID,917.632,VALID,0,VALID,93.0285,VALID,0,VALID,20.1857,VALID,138,VALID,1.69883,
2010-01-28, 02:31:04,VALID,917.628,VALID,0,VALID,93.2877,VALID,0.107441,VALID,20.1272,VALID,133,VALID,1.5625,
2010-01-28, 02:32:04,VALID,917.62,VALID,0,VALID,93.5774,VALID,0.107441,VALID,20.1077,VALID,145,VALID,1.25469,
2010-01-28, 02:33:04,VALID,917.608,VALID,0,VALID,93.6079,VALID,0,VALID,20.1077,VALID,145,VALID,1.25547,
2010-01-28, 02:34:04,VALID,917.595,VALID,0,VALID,93.5851,VALID,0.107441,VALID,20.1077,VALID,140,VALID,1.55703,
2010-01-28, 02:35:04,VALID,917.58,VALID,0,VALID,93.2344,VALID,0,VALID,20.0882,VALID,121,VALID,1.49805,
2010-01-28, 02:36:04,VALID,917.604,VALID,0,VALID,93.12,VALID,0,VALID,20.1483,VALID,111,VALID,1.55977,
2010-01-28, 02:37:04,VALID,917.576,VALID,0,VALID,93.0819,VALID,0.107441,VALID,20.1662,VALID,111,VALID,1.6582,
2010-01-28, 02:38:04,VALID,917.577,VALID,0,VALID,92.8151,VALID,0,VALID,20.2247,VALID,108,VALID,1.69961,
2010-01-28, 02:39:04,VALID,917.58,VALID,0,VALID,92.5178,VALID,0,VALID,20.2637,VALID,116,VALID,2.45898,
2010-01-28, 02:40:04,VALID,917.596,VALID,0,VALID,92.1595,VALID,0,VALID,20.3222,VALID,100,VALID,1.57695,
2010-01-28, 02:41:04,VALID,917.553,VALID,0,VALID,92.1442,VALID,0,VALID,20.3433,VALID,107,VALID,1.87461,
2010-01-28, 02:42:04,VALID,917.565,VALID,0,VALID,92.1671,VALID,0,VALID,20.3222,VALID,120,VALID,1.56562,
2010-01-28, 02:43:04,VALID,917.548,VALID,0,VALID,91.8927,VALID,0,VALID,20.3612,VALID,130,VALID,1.75508,
2010-01-28, 02:44:04,VALID,917.549,VALID,0,VALID,91.4048,VALID,0,VALID,20.4798,VALID,103,VALID,0.651172,
2010-01-28, 02:45:04,VALID,917.556,VALID,0,VALID,91.4734,VALID,0,VALID,20.4993,VALID,132,VALID,1.85469,
2010-01-28, 02:46:04,VALID,917.556,VALID,0,VALID,91.3743,VALID,0.107441,VALID,20.4798,VALID,142,VALID,1.13906,
2010-01-28, 02:47:04,VALID,917.557,VALID,0,VALID,91.7173,VALID,0,VALID,20.4392,VALID,121,VALID,1.92188,
2010-01-28, 02:48:04,VALID,917.568,VALID,0,VALID,91.9918,VALID,0.107441,VALID,20.3807,VALID,129,VALID,1.32852,
2010-01-28, 02:49:04,VALID,917.548,VALID,0,VALID,92.1976,VALID,0.107441,VALID,20.3807,VALID,123,VALID,1.12305,
2010-01-28, 02:50:04,VALID,917.554,VALID,0,VALID,92.1519,VALID,0,VALID,20.3807,VALID,123,VALID,1.24063,
2010-01-28, 02:51:04,VALID,917.583,VALID,0,VALID,92.0299,VALID,0,VALID,20.3807,VALID,123,VALID,1.52813,
2010-01-28, 02:52:04,VALID,917.576,VALID,0,VALID,91.8469,VALID,0.107441,VALID,20.4392,VALID,137,VALID,1.63203,
2010-01-28, 02:53:04,VALID,917.544,VALID,0,VALID,91.7021,VALID,0.107441,VALID,20.4993,VALID,121,VALID,1.64727,
2010-01-28, 02:54:04,VALID,917.506,VALID,0,VALID,91.7021,VALID,0,VALID,20.4782,VALID,118,VALID,1.95586,
2010-01-28, 02:55:04,VALID,917.514,VALID,0,VALID,91.4124,VALID,0.107441,VALID,20.5188,VALID,130,VALID,1.8543,
2010-01-28, 02:56:04,VALID,917.509,VALID,0,VALID,91.3057,VALID,0,VALID,20.5172,VALID,121,VALID,1.89219,
2010-01-28, 02:57:04,VALID,917.484,VALID,0,VALID,90.9702,VALID,0.107441,VALID,20.5757,VALID,110,VALID,2.22305,
2010-01-28, 02:58:04,VALID,917.451,VALID,0,VALID,90.4823,VALID,0,VALID,20.6553,VALID,123,VALID,1.96797,
2010-01-28, 02:59:04,VALID,917.448,VALID,0,VALID,89.7657,VALID,0.107441,VALID,20.7513,VALID,123,VALID,2.58672,
2010-01-28, 03:00:04,VALID,917.445,VALID,0,VALID,89.3159,VALID,0,VALID,20.8293,VALID,126,VALID,2.30977,
2010-01-28, 03:01:04,VALID,917.422,VALID,0,VALID,89.1025,VALID,0.107441,VALID,20.9073,VALID,127,VALID,2.04961,
2010-01-28, 03:02:04,VALID,917.388,VALID,0,VALID,89.2397,VALID,0.107441,VALID,20.9268,VALID,127,VALID,1.57617,
2010-01-28, 03:03:04,VALID,917.388,VALID,0,VALID,89.3541,VALID,0.107441,VALID,20.9073,VALID,96,VALID,1.81211,
2010-01-28, 03:04:04,VALID,917.357,VALID,0,VALID,89.2778,VALID,0.107441,VALID,20.8878,VALID,121,VALID,2.3043,
2010-01-28, 03:05:04,VALID,917.317,VALID,0,VALID,89.5599,VALID,0.107441,VALID,20.8683,VALID,115,VALID,2.04336,
2010-01-28, 03:06:04,VALID,917.268,VALID,0,VALID,89.7733,VALID,0,VALID,20.8113,VALID,102,VALID,2.35313,
2010-01-28, 03:07:04,VALID,917.196,VALID,0,VALID,90.0478,VALID,0,VALID,20.8113,VALID,122,VALID,2.23516,
2010-01-28, 03:08:04,VALID,917.183,VALID,0,VALID,90.3375,VALID,0,VALID,20.7123,VALID,117,VALID,1.63203,
2010-01-28, 03:09:04,VALID,917.181,VALID,0,VALID,90.6805,VALID,0,VALID,20.6537,VALID,124,VALID,1.66484,
2010-01-28, 03:10:04,VALID,917.161,VALID,0,VALID,90.8483,VALID,0,VALID,20.5968,VALID,124,VALID,2.50625,
2010-01-28, 03:11:04,VALID,917.142,VALID,0,VALID,91.0007,VALID,0,VALID,20.5968,VALID,111,VALID,1.46133,
2010-01-28, 03:12:04,VALID,917.132,VALID,0,VALID,91.0312,VALID,0,VALID,20.5562,VALID,109,VALID,1.2457,
2010-01-28, 03:13:04,VALID,917.1,VALID,0,VALID,91.0312,VALID,0,VALID,20.5773,VALID,111,VALID,1.75703,
2010-01-28, 03:14:04,VALID,917.114,VALID,0,VALID,91.0007,VALID,0,VALID,20.5968,VALID,118,VALID,1.97031,
2010-01-28, 03:15:04,VALID,917.164,VALID,0,VALID,91.1151,VALID,0,VALID,20.5562,VALID,85,VALID,1.63008,
2010-01-28, 03:16:04,VALID,917.151,VALID,0,VALID,91.2904,VALID,0,VALID,20.5383,VALID,117,VALID,1.61875,
2010-01-28, 03:17:04,VALID,917.162,VALID,0,VALID,91.2447,VALID,0,VALID,20.5383,VALID,130,VALID,2.11172,
2010-01-28, 03:18:04,VALID,917.132,VALID,0,VALID,91.2599,VALID,0,VALID,20.5578,VALID,112,VALID,2.3293,
2010-01-28, 03:19:04,VALID,917.125,VALID,0,VALID,91.0846,VALID,0,VALID,20.6163,VALID,95,VALID,1.97344,
2010-01-28, 03:20:04,VALID,917.117,VALID,0,VALID,90.9473,VALID,0,VALID,20.6358,VALID,132,VALID,1.83828,
2010-01-28, 03:21:04,VALID,917.101,VALID,0,VALID,90.9321,VALID,0,VALID,20.6147,VALID,115,VALID,1.55234,
2010-01-28, 03:22:04,VALID,917.131,VALID,0,VALID,91.0922,VALID,0,VALID,20.6163,VALID,99,VALID,1.7793,
2010-01-28, 03:23:04,VALID,917.121,VALID,0,VALID,91.1913,VALID,0,VALID,20.5773,VALID,107,VALID,1.81758,
2010-01-28, 03:24:04,VALID,917.106,VALID,0,VALID,91.2752,VALID,0,VALID,20.5578,VALID,130,VALID,1.16953,
2010-01-28, 03:25:04,VALID,917.111,VALID,0,VALID,91.3057,VALID,0,VALID,20.5367,VALID,104,VALID,0.869141,
2010-01-28, 03:26:04,VALID,917.107,VALID,0,VALID,91.1761,VALID,0,VALID,20.5578,VALID,133,VALID,1.99492,
2010-01-28, 03:27:04,VALID,917.098,VALID,0,VALID,91.1303,VALID,0,VALID,20.5952,VALID,99,VALID,0.979297,
2010-01-28, 03:28:04,VALID,917.138,VALID,0,VALID,91.2447,VALID,0,VALID,20.5757,VALID,97,VALID,1.09258,
2010-01-28, 03:29:04,VALID,917.104,VALID,0,VALID,91.3133,VALID,0,VALID,20.5757,VALID,97,VALID,0.758984,
2010-01-28, 03:30:04,VALID,917.083,VALID,0,VALID,91.3819,VALID,0,VALID,20.6163,VALID,130,VALID,1.46211,
2010-01-28, 03:31:04,VALID,917.098,VALID,0,VALID,91.3743,VALID,0,VALID,20.6163,VALID,109,VALID,1.33594,
2010-01-28, 03:32:04,VALID,917.099,VALID,0,VALID,91.3438,VALID,0,VALID,20.6163,VALID,120,VALID,1.38203,
2010-01-28, 03:33:04,VALID,917.085,VALID,0,VALID,91.4276,VALID,0,VALID,20.6147,VALID,145,VALID,0.894141,
2010-01-28, 03:34:04,VALID,917.079,VALID,0,VALID,91.3361,VALID,0,VALID,20.6147,VALID,140,VALID,1.09961,
2010-01-28, 03:35:04,VALID,917.088,VALID,0,VALID,91.1532,VALID,0,VALID,20.6537,VALID,130,VALID,2.03164,
2010-01-28, 03:36:04,VALID,917.083,VALID,0,VALID,91.0922,VALID,0,VALID,20.6943,VALID,109,VALID,1.76836,
2010-01-28, 03:37:04,VALID,917.099,VALID,0,VALID,91.1913,VALID,0,VALID,20.6959,VALID,66,VALID,1.72656,
2010-01-28, 03:38:04,VALID,917.101,VALID,0,VALID,91.3285,VALID,0,VALID,20.6553,VALID,80,VALID,0.773047,
2010-01-28, 03:39:04,VALID,917.145,VALID,0,VALID,91.603,VALID,0,VALID,20.6553,VALID,80,VALID,1.58594,
2010-01-28, 03:40:04,VALID,917.136,VALID,0,VALID,91.7554,VALID,0,VALID,20.6569,VALID,97,VALID,1.50898,
2010-01-28, 03:41:04,VALID,917.12,VALID,0,VALID,91.9079,VALID,0,VALID,20.6374,VALID,128,VALID,1.25195,
2010-01-28, 03:42:04,VALID,917.1,VALID,0,VALID,92.1137,VALID,0,VALID,20.6163,VALID,144,VALID,0.964063,
2010-01-28, 03:43:04,VALID,917.096,VALID,0,VALID,92.4187,VALID,0,VALID,20.5968,VALID,144,VALID,0.696875,